GW1490 Weather Reports


time (UTC)temp
F
wind
direction
speed
knots
gust
knots
rain 1hr
in
rain 24hr
in
rain mn
in
humidity
%
barometer
mb
20260502194838 54 226 0.0 1.7 0.00 0.00 0.00 51 996.9
20260502194248 54 230 1.7 3.5 0.00 0.00 0.00 46 997.2
20260502193634 54 228 2.6 5.2 0.00 0.00 0.00 52 997.2
20260502193038 54 244 2.6 6.1 0.00 0.00 0.00 52 997.2
20260502192426 54 253 1.7 3.5 0.00 0.00 0.00 51 997.2
20260502191852 56 241 1.7 1.7 0.00 0.00 0.00 50 997.2
20260502190615 54 248 4.3 5.2 0.00 0.00 0.00 48 997.6
20260502190018 54 236 0.9 2.6 0.00 0.00 0.00 48 997.6
20260502185437 54 218 2.6 3.5 0.00 0.00 0.00 51 997.6
20260502184255 56 241 1.7 5.2 0.00 0.00 0.00 46 997.6
20260502183654 56 236 1.7 2.6 0.00 0.00 0.00 52 997.6
20260502183016 53 262 1.7 5.2 0.00 0.00 0.00 49 997.9
20260502182440 53 230 0.9 2.6 0.00 0.00 0.00 48 997.9
20260502181833 53 223 0.9 1.7 0.00 0.00 0.00 48 997.6
20260502181254 53 250 0.9 2.6 0.00 0.00 0.00 57 997.9
20260502180621 53 244 0.9 3.5 0.00 0.00 0.00 54 997.9
20260502164244 55 257 2.6 2.6 0.00 0.00 0.00 51 998.3
20260502163631 53 215 1.7 1.7 0.00 0.00 0.00 48 998.6
20260502163053 53 274 2.6 2.6 0.00 0.00 0.00 52 998.6
20260502162442 54 261 3.5 6.1 0.00 0.00 0.00 53 998.6
20260502161816 54 245 0.9 2.6 0.00 0.00 0.00 49 998.6
20260502161221 53 214 1.7 3.5 0.00 0.00 0.00 55 998.9
20260502160623 53 257 1.7 6.1 0.00 0.00 0.00 52 998.6
20260502151833 52 229 3.5 5.2 0.00 0.00 0.00 55 998.9
20260502151241 52 221 0.9 6.1 0.00 0.00 0.00 60 998.9
20260502150650 52 220 1.7 3.5 0.00 0.00 0.00 56 998.9
20260502130631 42 259 0.9 0.9 0.00 0.00 0.00 99 998.9
20260502123635 40 273 0.0 0.0 0.00 0.00 0.00 99 998.9
20260502122440 39 256 0.0 0.0 0.00 0.00 0.00 99 998.9
20260502121222 39 250 0.0 0.9 0.00 0.00 0.00 99 998.9
20260502120644 39 249 0.0 0.0 0.00 0.00 0.00 99 998.9
20260502115451 40 253 0.0 0.9 0.00 0.00 0.00 99 999.3
20260502114813 39 244 0.0 0.9 0.00 0.00 0.00 99 998.9
20260502114232 39 225 0.0 0.0 0.00 0.00 0.00 99 998.9
20260502113611 39 252 0.0 0.0 0.00 0.00 0.00 99 998.9
20260502113039 39 247 0.0 0.9 0.00 0.00 0.00 99 998.9
20260502112437 39 238 0.0 0.0 0.00 0.00 0.00 99 998.9
20260502111828 39 237 0.0 0.0 0.00 0.00 0.00 99 998.6
20260502111226 39 218 0.0 0.9 0.00 0.00 0.00 99 998.6
20260502110017 38 236 0.0 0.0 0.00 0.00 0.00 99 998.6
20260502105418 38 226 0.0 0.9 0.00 0.00 0.00 99 998.6
20260502104829 38 237 0.0 0.0 0.00 0.00 0.00 99 998.6
20260502104217 38 238 0.0 0.0 0.00 0.00 0.00 99 998.6
20260502103635 38 242 0.0 0.0 0.00 0.00 0.00 99 998.6
20260502103043 38 240 0.0 0.0 0.00 0.00 0.00 99 998.6
20260502102419 38 233 0.0 0.9 0.00 0.00 0.00 99 998.6
20260502101846 38 226 0.9 0.9 0.00 0.00 0.00 99 998.9
20260502100630 38 231 0.0 0.0 0.00 0.00 0.00 99 998.9
20260502091252 38 236 0.0 0.9 0.00 0.00 0.00 99 998.9
20260502090624 38 223 0.0 1.7 0.00 0.00 0.00 99 998.9
20260502071224 39 211 0.0 0.9 0.00 0.00 0.00 99 998.3
20260502070652 39 229 0.0 0.9 0.00 0.00 0.00 99 998.6
20260502070035 39 201 0.0 0.9 0.00 0.00 0.00 99 998.6
20260502063651 38 220 0.9 0.9 0.00 0.00 0.00 99 998.6
20260502063042 38 234 0.0 0.9 0.00 0.00 0.00 99 998.9
20260502061814 38 225 0.9 0.9 0.00 0.00 0.00 99 998.9
20260502061249 38 227 0.0 0.9 0.00 0.00 0.00 99 998.9
20260502060622 38 225 0.0 0.0 0.00 0.00 0.00 99 998.9
20260502060047 38 228 0.0 0.9 0.00 0.00 0.00 99 998.9
20260502055448 38 230 0.0 0.0 0.00 0.00 0.00 99 998.9
20260502054820 38 222 0.0 0.9 0.00 0.00 0.00 99 999.3
20260502054250 38 232 0.0 0.0 0.00 0.00 0.00 99 998.9
20260502053021 38 226 0.0 0.9 0.00 0.00 0.00 99 999.3
20260502052415 38 228 0.0 0.0 0.00 0.00 0.00 99 999.3
20260502051826 38 228 0.0 0.0 0.00 0.00 0.00 99 998.9
20260502051220 38 232 0.0 0.0 0.00 0.00 0.00 99 999.3
20260502050628 38 226 0.9 0.9 0.00 0.00 0.00 99 998.9
20260502050039 38 226 0.0 0.9 0.00 0.00 0.00 99 999.3
20260502045433 39 226 0.0 0.9 0.00 0.00 0.00 99 998.9
20260502044838 39 223 0.9 0.9 0.00 0.00 0.00 99 999.3
20260502043629 39 233 0.0 0.9 0.00 0.00 0.00 98 998.9
20260502043043 40 232 0.9 0.9 0.00 0.00 0.00 98 999.3
20260502042435 40 240 0.0 0.9 0.00 0.00 0.00 98 999.3
20260502041810 40 233 0.0 0.9 0.00 0.00 0.00 98 999.3
20260502041217 40 227 0.9 0.9 0.00 0.00 0.00 98 999.3
20260502040649 40 227 0.0 0.9 0.00 0.00 0.00 98 999.3
20260502040019 40 232 0.0 0.0 0.00 0.00 0.00 97 998.9
20260502035442 41 215 0.9 0.9 0.00 0.00 0.00 97 999.3
20260502034810 41 226 0.0 0.9 0.00 0.00 0.00 97 999.3
20260502034246 41 226 0.0 0.9 0.00 0.00 0.00 97 998.9
20260502033649 41 232 0.0 0.0 0.00 0.00 0.00 96 998.9
20260502033012 42 225 0.0 0.9 0.00 0.00 0.00 95 998.9
20260502032426 42 226 0.0 0.9 0.00 0.00 0.00 95 998.9
20260502031841 42 235 0.0 0.0 0.00 0.00 0.00 95 998.9
20260502031213 42 232 0.0 0.9 0.00 0.00 0.00 94 998.9
20260502030616 43 233 0.0 0.0 0.00 0.00 0.00 93 998.9
20260502030046 43 240 0.0 0.0 0.00 0.00 0.00 93 998.9
20260502025414 44 235 0.0 0.0 0.00 0.00 0.00 93 998.9
20260502024827 43 233 0.0 0.0 0.00 0.00 0.00 92 999.3
20260502024219 43 233 0.0 0.0 0.00 0.00 0.00 91 999.3
20260502023624 43 233 0.0 0.9 0.00 0.00 0.00 91 999.3
20260502023047 44 223 0.9 0.9 0.00 0.00 0.00 90 998.9
20260502022427 44 224 0.9 0.9 0.00 0.00 0.00 89 998.9
20260502021812 45 222 0.9 0.9 0.00 0.00 0.00 89 998.9
20260502021234 46 223 0.0 0.9 0.00 0.00 0.00 88 998.9
20260502020614 46 233 0.0 0.0 0.00 0.00 0.00 87 998.3
20260502020036 47 227 0.9 0.9 0.00 0.00 0.00 84 998.3
20260502015431 48 240 0.0 0.9 0.00 0.00 0.00 84 998.3
20260502014842 49 243 0.9 0.9 0.00 0.00 0.00 82 998.3
20260502014227 49 234 0.0 0.9 0.00 0.00 0.00 77 998.3
20260502013620 49 243 0.9 0.9 0.00 0.00 0.00 77 998.3
20260502013036 49 235 1.7 1.7 0.00 0.00 0.00 77 998.3
20260502012450 49 241 0.0 0.9 0.00 0.00 0.00 76 998.3
20260502011841 50 243 0.9 1.7 0.00 0.00 0.00 74 997.9
20260502011224 50 237 0.0 0.9 0.00 0.00 0.00 72 997.9
20260502010625 50 241 0.9 1.7 0.00 0.00 0.00 71 997.6
20260502010053 50 245 1.7 1.7 0.00 0.00 0.00 71 997.6
20260502005446 51 234 0.9 1.7 0.00 0.00 0.00 72 997.6
20260502004843 51 259 2.6 3.5 0.00 0.00 0.00 69 997.2
20260502004227 51 237 0.0 1.7 0.00 0.00 0.00 70 997.2
20260502003649 51 262 2.6 3.5 0.00 0.00 0.00 68 996.9
20260502002449 52 233 3.5 5.2 0.00 0.00 0.00 70 996.9
20260502001832 53 239 2.6 3.5 0.00 0.00 0.00 71 996.9
20260502001246 53 231 0.9 5.2 0.00 0.00 0.00 67 996.6
20260502000031 54 263 3.5 7.8 0.00 0.00 0.00 70 996.2
20260501235453 54 240 0.9 1.7 0.00 0.00 0.00 72 996.2
20260501234840 54 239 1.7 2.6 0.00 0.00 0.00 72 996.2
20260501234253 54 262 3.5 3.5 0.00 0.00 0.00 70 995.5
20260501233644 54 246 1.7 3.5 0.00 0.00 0.00 72 995.5
20260501233024 54 244 0.9 6.1 0.00 0.00 0.00 68 995.5
20260501232442 55 245 1.7 3.5 0.00 0.00 0.00 68 995.5
20260501231817 55 242 3.5 3.5 0.00 0.00 0.00 67 995.5
20260501231255 55 242 0.9 2.6 0.00 0.00 0.00 68 995.5
20260501230650 56 261 2.6 5.2 0.00 0.00 0.00 67 995.2
20260501230036 56 239 0.9 0.9 0.00 0.00 0.00 66 995.5
20260501225415 56 255 2.6 2.6 0.00 0.00 0.00 67 995.2
20260501224827 56 230 0.9 1.7 0.00 0.00 0.00 66 995.2
20260501224233 55 243 2.6 6.1 0.00 0.00 0.00 65 995.2
20260501223616 56 218 1.7 7.0 0.00 0.00 0.00 64 995.2
20260501223053 56 249 1.7 6.1 0.00 0.00 0.00 66 995.2
20260501222451 56 260 1.7 3.5 0.00 0.00 0.00 66 994.9
20260501221839 56 239 1.7 1.7 0.00 0.00 0.00 68 995.2
20260501221246 56 233 0.0 3.5 0.00 0.00 0.00 68 995.2
20260501220645 55 220 1.7 5.2 0.00 0.00 0.00 69 995.2
20260501220021 55 250 0.9 1.7 0.00 0.00 0.00 71 994.9
20260501215415 55 218 2.6 2.6 0.00 0.00 0.00 71 994.9
20260501214238 55 245 0.9 1.7 0.00 0.00 0.00 68 995.2
20260501213041 55 239 1.7 1.7 0.00 0.00 0.00 71 994.9
20260501211829 55 255 0.9 0.9 0.00 0.00 0.00 71 994.9
20260501211210 55 228 0.9 1.7 0.00 0.00 0.00 73 994.5
20260501210617 55 244 0.9 1.7 0.00 0.00 0.00 73 994.9
20260501210030 55 268 1.7 2.6 0.00 0.00 0.00 71 994.5
20260501205421 55 247 1.7 2.6 0.00 0.00 0.00 73 994.9
20260501204849 56 257 1.7 2.6 0.00 0.00 0.00 74 994.5
20260501203622 56 238 0.9 1.7 0.00 0.00 0.00 74 994.5
20260501202444 56 237 2.6 5.2 0.00 0.00 0.00 73 994.5
20260501201809 56 271 3.5 3.5 0.00 0.00 0.00 73 994.5
20260501201239 57 283 5.2 10.4 0.00 0.00 0.00 72 994.5
20260501200048 58 218 4.3 6.1 0.00 0.00 0.00 66 994.5